VILANOVA DE SAU (Osona)





Hora UTC 09:30
Temperatura 9.4 ºC
Humitat 94.6 %
Pressió 1002.1 hPa
Pluja 0.2 mm
Velocitat vent 0.0 km/h
Direcció vent NNE
Radiació solar 25.0 W/m²

Dades diàries 2022-12-10



Hora UTC (hivern +1h; estiu +2h)
Temperatura (ºC) Humitat (%) Pressió (hPa) Velocitat vent (km/h) Precipitació (mm) Radiació solar (W/m²)
Hora UTC Aire Humitat Pressió Vel. Dir. Vel. Max Dir. Intent. màx 5 min. Rad. Sol.
00:05 8.8 97.8 999.3 0.0 NNE 0.0 WNW 0.0 0.0
00:10 8.8 97.8 999.2 0.0 NNE 0.0 WNW 0.0 0.0
00:15 8.7 97.9 999.2 0.0 NNE 0.0 WNW 0.0 0.0
00:20 8.7 97.9 999.2 0.0 NNE 0.0 W 0.0 0.0
00:25 8.7 97.9 999.2 0.0 NNE 0.0 W 0.0 0.0
00:30 8.7 98.0 999.1 0.0 NNE 0.0 W 0.0 0.0
00:35 8.7 98.0 999.1 0.0 NNE 0.0 W 0.0 0.0
00:40 8.7 98.0 999.1 0.0 NNE 0.0 WNW 0.0 0.0
00:45 8.7 98.0 999.1 0.0 NNE 0.0 WNW 0.1 0.0
00:50 8.7 97.9 999.1 0.0 NNE 0.0 W 0.0 0.0
00:55 8.8 97.9 999.1 0.0 NNE 0.0 W 0.0 0.0
01:00 8.8 97.8 999.1 0.0 NNE 0.0 WNW 0.0 0.0
01:05 8.9 97.8 999.1 0.0 NNE 0.0 WNW 0.0 0.0
01:10 8.9 97.6 999.1 0.0 NNE 0.0 WNW 0.0 0.0
01:15 8.8 97.4 999.1 0.0 NNE 0.0 NW 0.0 0.0
01:20 8.7 97.5 999.2 0.0 NNE 0.0 NW 0.0 0.0
01:25 8.6 97.5 999.2 0.0 NNE 0.0 NW 0.0 0.0
01:30 8.6 97.6 999.2 0.0 NNE 0.0 NW 0.0 0.0
01:35 8.5 97.7 999.2 0.0 NNE 0.0 NW 0.0 0.0
01:40 8.5 97.7 999.3 0.0 NNE 0.0 NW 0.0 0.0
01:45 8.5 97.8 999.3 0.0 NNE 0.0 NW 0.0 0.0
01:50 8.5 97.8 999.3 0.0 NNE 0.0 NW 0.0 0.0
01:55 8.5 97.9 999.3 0.0 NNE 0.0 NW 0.0 0.0
02:00 8.5 98.0 999.4 0.0 NNE 0.0 NW 0.0 0.0
02:05 8.6 98.0 999.4 0.0 NNE 0.0 NW 0.0 0.0
02:10 8.5 98.0 999.4 0.0 NNE 0.0 W 0.0 0.0
02:15 8.5 98.1 999.4 0.0 NNE 0.0 W 0.0 0.0
02:20 8.5 98.1 999.4 0.0 NNE 0.0 W 0.0 0.0
02:25 8.4 98.1 999.5 0.0 NNE 0.0 W 0.0 0.0
02:30 8.4 98.2 999.4 0.0 NNE 0.0 W 0.0 0.0
02:35 8.4 98.2 999.4 0.0 NNE 0.0 W 0.0 0.0
02:40 8.4 98.3 999.4 0.0 NNE 0.0 W 0.0 0.0
02:45 8.3 98.3 999.4 0.0 NNE 0.0 W 0.0 0.0
02:50 8.3 98.3 999.4 0.0 NNE 0.0 W 0.0 0.0
02:55 8.3 98.4 999.5 0.0 NNE 0.0 W 0.0 0.0
03:00 8.2 98.4 999.5 0.0 NNE 0.0 W 0.0 0.0
03:05 8.1 98.4 999.5 0.0 NNE 0.0 W 0.0 0.0
03:10 8.1 98.4 999.4 0.0 NNE 0.0 W 0.0 0.0
03:15 8.1 98.6 999.4 0.0 NNE 0.0 W 0.0 0.0
03:20 8.1 98.6 999.4 0.0 NNE 0.0 W 0.0 0.0
03:25 8.0 98.5 999.4 0.0 NNE 0.0 W 0.0 0.0
03:30 7.9 98.6 999.4 0.0 NNE 0.0 W 0.0 0.0
03:35 7.9 98.6 999.4 0.0 NNE 0.0 W 0.1 0.0
03:40 8.0 98.8 999.4 0.0 NNE 0.0 WSW 0.0 0.0
03:45 8.1 98.9 999.3 0.0 NNE 0.0 W 0.0 0.0
03:50 8.1 98.7 999.3 0.0 NNE 0.0 W 0.0 0.0
03:55 7.9 98.7 999.4 0.0 NNE 0.0 W 0.0 0.0
04:00 7.9 98.7 999.5 0.0 NNE 0.0 W 0.0 0.0
04:05 7.7 98.7 999.5 0.0 NNE 0.0 ENE 0.0 0.0
04:10 7.7 98.8 999.6 0.0 NNE 0.0 ENE 0.0 0.0
04:15 7.8 98.9 999.6 0.0 NNE 0.0 ENE 0.0 0.0
04:20 7.9 99.0 999.5 0.0 NNE 0.0 ENE 0.0 0.0
04:25 7.9 99.0 999.5 0.0 NNE 0.0 SW 0.0 0.0
04:30 8.0 99.0 999.5 0.0 NNE 0.0 SW 0.0 0.0
04:35 8.0 99.0 999.6 0.0 NNE 0.0 WSW 0.0 0.0
04:40 8.0 99.0 999.7 0.0 NNE 0.0 WSW 0.0 0.0
04:45 8.0 99.0 999.7 0.0 NNE 0.0 WSW 0.0 0.0
04:50 7.9 99.0 999.6 0.0 NNE 0.0 S 0.0 0.0
04:55 7.8 99.0 999.5 0.0 NNE 0.0 SSW 0.0 0.0
05:00 7.8 99.0 999.5 0.0 NNE 0.0 WSW 0.0 0.1
05:05 7.8 99.2 999.5 0.0 NNE 0.0 SW 0.0 0.0
05:10 7.8 99.2 999.5 0.0 NNE 0.0 WSW 0.0 0.0
05:15 7.6 99.0 999.6 0.0 NNE 0.0 WSW 0.0 0.0
05:20 7.5 99.0 999.6 0.0 NNE 0.0 WSW 0.0 0.0
05:25 7.3 99.0 999.6 0.0 NNE 0.0 WSW 0.0 0.0
05:30 7.2 99.1 999.7 0.0 NNE 0.0 SW 0.0 0.0
05:35 7.2 99.2 999.7 0.0 NNE 0.0 WNW 0.0 0.0
05:40 7.1 99.1 999.7 0.0 NNE 0.0 WNW 0.0 0.0
05:45 6.9 99.1 999.8 0.0 NNE 0.0 WNW 0.0 0.0
05:50 6.9 99.2 999.8 0.0 NNE 0.0 WNW 0.0 0.0
05:55 6.9 99.2 999.9 0.0 NNE 0.0 WNW 0.0 0.0
06:00 6.9 99.3 999.9 0.0 NNE 0.0 W 0.0 0.0
06:05 6.9 99.3 1000.0 0.0 NNE 0.0 W 0.0 0.0
06:10 6.9 99.4 1000.0 0.0 NNE 0.0 W 0.0 0.0
06:15 7.0 99.5 1000.1 0.0 NNE 0.0 SW 0.0 0.0
06:20 7.3 99.7 1000.2 0.0 NNE 0.0 S 0.0 0.0
06:25 7.6 99.7 1000.2 0.0 NNE 0.0 SE 0.0 0.0
06:30 7.7 99.7 1000.3 0.0 NNE 0.0 S 0.0 0.0
06:35 7.8 99.4 1000.4 0.0 NNE 0.0 SE 0.0 0.0
06:40 7.8 99.4 1000.5 0.0 NNE 0.0 SE 0.0 0.0
06:45 7.8 99.4 1000.6 0.0 NNE 0.0 NE 0.0 0.0
06:50 7.9 99.5 1000.7 0.0 NNE 0.0 NE 0.0 0.0
06:55 8.0 99.6 1000.7 0.0 NNE 0.0 ESE 0.0 0.1
07:00 8.2 99.6 1000.7 0.4 SSW 8.8 S 0.0 0.2
07:05 8.3 99.6 1000.7 0.0 NNE 0.0 SW 0.0 0.7
07:10 8.3 99.4 1000.8 0.0 NNE 0.0 ESE 0.0 1.1
07:15 8.3 99.3 1000.8 0.0 NNE 0.0 ESE 0.0 2.7
07:20 8.2 99.2 1000.8 0.0 NNE 0.0 NNE 0.0 4.1
07:25 8.1 99.2 1000.8 0.0 NNE 0.0 NNE 0.0 5.2
07:30 7.9 99.1 1000.8 0.0 NNE 0.0 NE 0.0 6.4
07:35 7.8 99.2 1000.9 0.0 NNE 0.0 ENE 0.0 6.3
07:40 7.9 99.3 1001.0 0.0 NNE 0.0 ENE 0.0 9.5
07:45 7.9 99.4 1001.0 1.2 WSW 11.5 WSW 0.0 10.3
07:50 8.1 99.4 1001.0 0.0 NNE 0.0 W 0.0 9.5
07:55 8.1 99.3 1001.1 0.0 WSW 6.1 WSW 0.0 13.9
08:00 8.4 99.6 1001.1 0.9 SW 8.8 SW 0.0 18.7
08:05 8.6 99.5 1001.2 5.7 SW 19.6 SSW 0.0 14.9
08:10 8.8 99.2 1001.2 2.9 SW 14.2 SSW 0.0 16.1
08:15 8.9 98.7 1001.2 3.3 SW 14.2 SW 0.0 24.3
08:20 9.0 98.1 1001.3 1.4 SW 8.8 SW 0.0 16.5
08:25 9.1 97.7 1001.4 0.0 NNE 0.0 SE 0.0 12.3
08:30 9.1 97.3 1001.5 0.0 S 3.4 S 0.0 10.8
08:35 9.1 96.9 1001.6 2.0 NW 16.9 NNW 0.0 19.7
08:40 9.1 96.3 1001.6 1.9 W 11.5 WNW 0.0 25.3
08:45 9.3 95.1 1001.7 0.9 NW 6.1 NW 0.0 50.2
08:50 9.4 94.3 1001.7 1.2 SSW 8.8 SSE 0.0 67.6
08:55 9.5 93.4 1001.8 0.0 NNE 0.0 SSW 0.0 56.8
09:00 9.6 93.5 1001.9 0.0 NNE 0.0 SSE 0.0 45.9
09:05 9.5 93.7 1002.0 0.0 NNE 0.0 N 0.0 14.1
09:10 9.5 93.9 1002.0 0.0 NNE 0.0 ESE 0.0 38.0
09:15 9.4 94.3 1002.0 0.0 NNE 0.0 ENE 0.0 65.8
09:20 9.4 94.3 1002.0 0.6 ENE 6.1 ENE 0.0 52.2
09:25 9.4 94.1 1002.0 0.0 NNE 0.0 ENE 0.0 18.3
09:30 9.4 94.6 1002.1 0.0 NNE 0.0 NE 0.0 25.0
Màxima 9.6 99.7 1002.1 5.7 SW 19.6 SSW 0.1 67.6
Mínima 6.8 93.4 999.1
Total 0.2